TimeCDT,TemperatureF,Dew PointF,Humidity,Sea Level PressureIn,VisibilityMPH,Wind Direction,Wind SpeedMPH,Gust SpeedMPH,PrecipitationIn,Events,Conditions,WindDirDegrees,DateUTC
12:15 AM,69.1,66.6,92,29.87,10.0,Calm,Calm,-,N/A,,Mostly Cloudy,0,2012-09-06 05:15:00
12:35 AM,68.5,66.4,93,29.87,10.0,Calm,Calm,-,N/A,,Mostly Cloudy,0,2012-09-06 05:35:00
12:55 AM,69.1,66.4,91,29.88,10.0,Calm,Calm,-,N/A,,Mostly Cloudy,0,2012-09-06 05:55:00
1:15 AM,69.1,66.2,91,29.88,10.0,Calm,Calm,-,N/A,,Scattered Clouds,0,2012-09-06 06:15:00
1:55 AM,67.6,65.7,93,29.89,10.0,NW,5.8,-,N/A,,Scattered Clouds,310,2012-09-06 06:55:00
2:15 AM,68.9,65.8,90,29.89,10.0,NNW,6.9,-,N/A,,Scattered Clouds,330,2012-09-06 07:15:00
2:35 AM,68.9,65.8,90,29.89,10.0,NNW,5.8,-,N/A,,Clear,330,2012-09-06 07:35:00
2:55 AM,68.0,65.5,92,29.89,10.0,Calm,Calm,-,N/A,,Clear,0,2012-09-06 07:55:00
3:35 AM,67.8,65.3,92,29.90,10.0,Calm,Calm,-,N/A,,Scattered Clouds,0,2012-09-06 08:35:00
3:55 AM,66.6,64.4,93,29.90,10.0,North,3.5,-,N/A,,Scattered Clouds,10,2012-09-06 08:55:00
4:15 AM,66.6,64.6,93,29.91,10.0,Calm,Calm,-,N/A,,Clear,0,2012-09-06 09:15:00
4:35 AM,66.2,64.4,94,29.91,10.0,Calm,Calm,-,N/A,,Clear,0,2012-09-06 09:35:00
4:55 AM,65.5,63.9,94,29.92,10.0,NW,4.6,-,N/A,,Clear,320,2012-09-06 09:55:00
5:15 AM,65.7,64.0,94,29.92,10.0,NW,3.5,-,N/A,,Clear,310,2012-09-06 10:15:00
5:35 AM,64.8,63.5,96,29.93,7.0,NW,3.5,-,N/A,,Clear,310,2012-09-06 10:35:00
5:55 AM,64.6,63.3,96,29.93,7.0,NW,4.6,-,N/A,,Clear,320,2012-09-06 10:55:00
6:15 AM,64.4,62.8,94,29.94,7.0,NNW,4.6,-,N/A,,Clear,330,2012-09-06 11:15:00
6:35 AM,63.9,62.2,94,29.94,5.0,Calm,Calm,-,N/A,,Clear,0,2012-09-06 11:35:00
6:55 AM,62.6,61.5,96,29.95,2.5,Calm,Calm,-,N/A,,Clear,0,2012-09-06 11:55:00
7:15 AM,62.8,61.7,96,29.96,4.0,Calm,Calm,-,N/A,,Clear,0,2012-09-06 12:15:00
7:35 AM,63.0,61.9,96,29.96,4.0,Calm,Calm,-,N/A,,Clear,0,2012-09-06 12:35:00
7:55 AM,65.5,63.5,93,29.96,7.0,Calm,Calm,-,N/A,,Clear,0,2012-09-06 12:55:00
8:15 AM,67.6,63.5,87,29.97,10.0,Calm,Calm,-,N/A,,Clear,0,2012-09-06 13:15:00
8:35 AM,69.1,63.1,81,29.97,10.0,NNE,3.5,-,N/A,,Clear,20,2012-09-06 13:35:00
8:55 AM,71.1,63.0,75,29.97,10.0,NNE,4.6,-,N/A,,Clear,20,2012-09-06 13:55:00
9:15 AM,72.7,61.7,68,29.98,10.0,NNE,3.5,-,N/A,,Clear,20,2012-09-06 14:15:00
9:35 AM,73.4,62.6,69,29.99,10.0,NNE,3.5,-,N/A,,Clear,20,2012-09-06 14:35:00
9:55 AM,74.8,61.7,64,29.99,10.0,NW,3.5,-,N/A,,Clear,310,2012-09-06 14:55:00
10:15 AM,76.3,62.4,62,29.99,10.0,NNW,3.5,-,N/A,,Clear,330,2012-09-06 15:15:00
10:35 AM,77.0,61.3,58,29.99,10.0,NNW,4.6,-,N/A,,Clear,340,2012-09-06 15:35:00
10:55 AM,78.3,59.2,52,29.99,10.0,NNW,6.9,-,N/A,,Clear,340,2012-09-06 15:55:00
11:15 AM,78.6,59.2,51,29.99,10.0,North,4.6,-,N/A,,Clear,350,2012-09-06 16:15:00
11:35 AM,79.5,58.1,48,29.99,10.0,North,6.9,-,N/A,,Clear,350,2012-09-06 16:35:00
11:55 AM,80.2,57.7,46,29.99,10.0,North,5.8,-,N/A,,Clear,350,2012-09-06 16:55:00
12:15 PM,79.9,54.1,41,29.98,10.0,NW,3.5,-,N/A,,Clear,320,2012-09-06 17:15:00
12:35 PM,81.0,52.5,37,29.98,10.0,WNW,5.8,-,N/A,,Clear,300,2012-09-06 17:35:00
12:55 PM,80.8,49.6,34,29.97,10.0,North,5.8,-,N/A,,Clear,360,2012-09-06 17:55:00
1:15 PM,81.5,50.9,34,29.96,10.0,WNW,5.8,-,N/A,,Clear,290,2012-09-06 18:15:00
1:35 PM,82.4,51.3,34,29.96,10.0,Calm,Calm,-,N/A,,Clear,0,2012-09-06 18:35:00
1:55 PM,82.6,46.6,28,29.95,10.0,Calm,Calm,-,N/A,,Clear,0,2012-09-06 18:55:00
2:15 PM,83.1,48.6,30,29.94,10.0,North,5.8,-,N/A,,Clear,360,2012-09-06 19:15:00
2:35 PM,83.1,49.3,31,29.94,10.0,NNW,8.1,-,N/A,,Clear,340,2012-09-06 19:35:00
2:55 PM,83.1,46.9,28,29.94,10.0,NW,6.9,-,N/A,,Clear,320,2012-09-06 19:55:00
3:15 PM,82.9,46.2,28,29.93,10.0,NNW,4.6,-,N/A,,Clear,330,2012-09-06 20:15:00
3:35 PM,82.9,46.9,28,29.92,10.0,Calm,Calm,-,N/A,,Clear,0,2012-09-06 20:35:00
3:55 PM,83.1,47.5,29,29.92,10.0,NW,3.5,-,N/A,,Clear,310,2012-09-06 20:55:00
4:15 PM,82.8,48.9,31,29.92,10.0,NNW,6.9,-,N/A,,Clear,340,2012-09-06 21:15:00
4:35 PM,82.8,48.0,30,29.91,10.0,Calm,Calm,-,N/A,,Clear,0,2012-09-06 21:35:00
4:55 PM,82.8,44.4,26,29.91,10.0,Calm,Calm,-,N/A,,Clear,0,2012-09-06 21:55:00
5:15 PM,81.9,49.8,33,29.91,10.0,Calm,Calm,-,N/A,,Clear,0,2012-09-06 22:15:00
5:35 PM,81.5,53.6,38,29.91,10.0,Calm,Calm,-,N/A,,Clear,0,2012-09-06 22:35:00
5:55 PM,80.8,54.9,41,29.91,10.0,Calm,Calm,-,N/A,,Clear,0,2012-09-06 22:55:00
6:15 PM,78.4,56.1,46,29.91,10.0,North,3.5,-,N/A,,Clear,360,2012-09-06 23:15:00
6:35 PM,76.3,55.4,48,29.91,10.0,Calm,Calm,-,N/A,,Clear,0,2012-09-06 23:35:00
6:55 PM,76.1,56.8,51,29.91,10.0,Calm,Calm,-,N/A,,Clear,0,2012-09-06 23:55:00
7:15 PM,73.6,56.1,54,29.90,10.0,NE,4.6,-,N/A,,Clear,40,2012-09-07 00:15:00
7:35 PM,70.2,57.6,64,29.90,10.0,Calm,Calm,-,N/A,,Clear,0,2012-09-07 00:35:00
7:55 PM,67.1,58.3,73,29.90,10.0,Calm,Calm,-,N/A,,Clear,0,2012-09-07 00:55:00
8:15 PM,66.4,57.9,74,29.90,10.0,Calm,Calm,-,N/A,,Clear,0,2012-09-07 01:15:00
8:35 PM,66.9,57.0,70,29.90,10.0,Calm,Calm,-,N/A,,Clear,0,2012-09-07 01:35:00
8:55 PM,63.9,57.2,79,29.90,10.0,Calm,Calm,-,N/A,,Clear,0,2012-09-07 01:55:00
9:15 PM,64.0,57.0,78,29.90,10.0,Calm,Calm,-,N/A,,Clear,0,2012-09-07 02:15:00
9:35 PM,62.2,57.0,83,29.90,10.0,Calm,Calm,-,N/A,,Clear,0,2012-09-07 02:35:00
9:55 PM,62.8,57.0,81,29.90,10.0,Calm,Calm,-,N/A,,Clear,0,2012-09-07 02:55:00
10:15 PM,60.8,57.2,88,29.90,10.0,Calm,Calm,-,N/A,,Clear,0,2012-09-07 03:15:00
10:35 PM,61.7,57.4,86,29.90,10.0,Calm,Calm,-,N/A,,Clear,0,2012-09-07 03:35:00
10:55 PM,61.0,57.2,87,29.90,10.0,NE,3.5,-,N/A,,Clear,50,2012-09-07 03:55:00
11:15 PM,62.1,57.0,84,29.89,10.0,East,3.5,-,N/A,,Clear,90,2012-09-07 04:15:00
11:35 PM,63.9,54.0,70,29.88,10.0,ESE,5.8,-,N/A,,Clear,110,2012-09-07 04:35:00
11:55 PM,66.4,51.6,59,29.88,10.0,ESE,4.6,-,N/A,,Clear,110,2012-09-07 04:55:00